Weather History for Plattsburgh, NY

Change the Weather History Date:

Saturday, February 16, 2013

  Actual Average Record
Temperature  
Mean Temperature 24 °F 21 °F  
Max Temperature 31 °F 31 °F 50 °F (1949)
Min Temperature 17 °F 11 °F -8 °F (1959)
Degree Days  
Heating Degree Days 41 44  
Month to date heating degree days 626 737  
Since 1 July heating degree days 4696 5113  
Moisture  
Dew Point 10 °F    
Average Humidity 65    
Maximum Humidity 84    
Minimum Humidity 45    
Precipitation  
Precipitation T in - 0.72 in (1958)
Month to date precipitation 0.33  
Year to date precipitation 1.08  
Sea Level Pressure  
Sea Level Pressure 30.00 in    
Wind  
Wind Speed 7 mph (NNE)    
Max Wind Speed 15 mph    
Max Gust Speed 20 mph    
Visibility 10 miles    
Events      
T = Trace of Precipitation, MM = Missing Value Source: NWS Daily Summary

Daily Weather History Graph

Daily Weather History Graph

Search for Another Location

Airport:

Trip Planner

Search our weather history database for the weather conditions in past years. The results will help you decide how hot, cold, wet, or windy it might be!

Date:

Astronomy

Feb. 16, 2013 Rise Set
Actual Time 6:52 AM EST 5:24 PM EST
Civil Twilight 6:22 AM EST 5:54 PM EST
Nautical Twilight 5:48 AM EST 6:28 PM EST
Astronomical Twilight 5:14 AM EST 7:02 PM EST
Moon 9:45 AM EST (2/16) No Moon Set
Length of Visible Light 11h 31m
Length of Day
10h 31m
Waxing Crescent, 39% of the Moon is Illuminated
Feb 16
Waxing Crescent
Feb 17
First Quarter
Feb 25
Full
Mar 4
Last Quarter
Mar 11
New

Hourly Weather History & Observations

Time (EST) Temp. Windchill Dew Point Humidity Pressure Visibility Wind Dir Wind Speed Gust Speed Precip Events Conditions
12:53 AM 30.0 °F 25.2 °F 12.9 °F 49% 29.99 in 10.0 mi Variable 4.6 mph - N/A   Mostly Cloudy
1:53 AM 28.0 °F - 14.0 °F 56% 29.99 in 10.0 mi Calm Calm - N/A   Partly Cloudy
2:53 AM 25.0 °F 18.1 °F 14.0 °F 63% 29.98 in 10.0 mi ENE 5.8 mph - N/A   Clear
3:53 AM 27.0 °F - 14.0 °F 58% 29.98 in 10.0 mi Calm Calm - N/A   Clear
4:53 AM 21.0 °F 13.4 °F 14.0 °F 74% 29.99 in 10.0 mi North 5.8 mph - N/A   Clear
5:53 AM 19.0 °F 12.3 °F 15.1 °F 85% 30.00 in 10.0 mi North 4.6 mph - N/A   Clear
6:53 AM 19.9 °F - 14.0 °F 78% 30.01 in 10.0 mi Calm Calm - N/A   Overcast
7:53 AM 21.0 °F 16.2 °F 14.0 °F 74% 30.03 in 10.0 mi North 3.5 mph - N/A   Partly Cloudy
8:53 AM 23.0 °F 13.9 °F 10.9 °F 60% 30.04 in 10.0 mi NW 8.1 mph - N/A   Clear
9:53 AM 25.0 °F 17.1 °F 10.0 °F 53% 30.04 in 10.0 mi WNW 6.9 mph - 0.00 in   Clear
10:53 AM 24.1 °F 17.0 °F 10.0 °F 55% 30.03 in 10.0 mi NNE 5.8 mph - N/A   Clear
11:53 AM 23.0 °F 11.1 °F 12.0 °F 63% 30.02 in 10.0 mi NE 12.7 mph 18.4 mph N/A   Clear
12:53 PM 24.1 °F 13.1 °F 10.9 °F 57% 30.01 in 10.0 mi NE 11.5 mph - N/A   Clear
1:53 PM 25.0 °F 13.1 °F 10.0 °F 53% 29.99 in 10.0 mi NE 13.8 mph - N/A   Clear
2:53 PM 24.1 °F 13.1 °F 10.9 °F 57% 29.99 in 10.0 mi ENE 11.5 mph - N/A   Clear
3:53 PM 24.1 °F 13.1 °F 9.0 °F 53% 29.99 in 10.0 mi ENE 11.5 mph - N/A   Clear
4:53 PM 23.0 °F 11.7 °F 9.0 °F 55% 30.01 in 10.0 mi ENE 11.5 mph - N/A   Clear
5:53 PM 21.9 °F 13.4 °F 10.0 °F 60% 30.01 in 10.0 mi NE 6.9 mph - N/A   Clear
6:53 PM 21.9 °F 11.7 °F 3.9 °F 46% 30.02 in 10.0 mi North 9.2 mph - N/A   Clear
7:53 PM 19.9 °F 12.1 °F 3.0 °F 48% 30.02 in 10.0 mi NNW 5.8 mph - N/A   Clear
8:53 PM 19.0 °F 11.1 °F 3.9 °F 52% 30.01 in 10.0 mi NNW 5.8 mph - N/A   Clear
9:53 PM 19.0 °F 11.1 °F 3.0 °F 50% 29.99 in 10.0 mi NNW 5.8 mph - N/A   Clear
10:53 PM 18.0 °F 6.9 °F 3.0 °F 52% 29.96 in 10.0 mi North 9.2 mph - N/A   Clear
11:53 PM 17.1 °F 8.7 °F 3.0 °F 54% 29.96 in 10.0 mi NNE 5.8 mph - N/A   Clear